Syracuse, NY

10:59 PM EST on February 17, 2018 (GMT -0500)
Syracuse Hancock International

Weather History for KSYR - October, 2014

Change the Weather History Date:

Thursday, October 23, 2014

  Actual Average Record
Temperature  
Mean Temperature 49 °F 48 °F  
Max Temperature 54 °F 57 °F 77 °F (1991)
Min Temperature 44 °F 39 °F 27 °F (1969)
Degree Days  
Heating Degree Days 16 17  
Month to date heating degree days 219 307  
Since 1 July heating degree days 333 474  
Cooling Degree Days 0 0  
Month to date cooling degree days 13 0  
Year to date cooling degree days 647 565  
Moisture  
Dew Point 41 °F    
Average Humidity 75    
Maximum Humidity 86    
Minimum Humidity 63    
Precipitation  
Precipitation 0.01 in 0.11 in 2.54 in (1937)
Month to date precipitation 3.54 2.55  
Year to date precipitation 34.18 30.83  
Snow  
Snow 0.00 in 0.00 in 1.20 in (1997)
Month to date snowfall 0.0 0.1  
Since 1 July snowfall 0.0 0.1  
Since 1 September snowfall 0.0 0.1  
Snow Depth 0.00 in    
Sea Level Pressure  
Sea Level Pressure 29.97 in    
Wind  
Wind Speed 12 mph (NW)    
Max Wind Speed 21 mph    
Max Gust Speed 29 mph    
Visibility 10 miles    
Events Rain    
T = Trace of Precipitation, MM = Missing Value Source: NWS Daily Summary

Daily Weather History Graph

Daily Weather History Graph

Search for Another Location

Airport or City:

Trip Planner

Search our weather history database for the weather conditions in past years. The results will help you decide how hot, cold, wet, or windy it might be!

Date:

Astronomy

Oct. 23, 2014 Rise Set
Actual Time 7:27 AM EDT 6:09 PM EDT
Civil Twilight 6:58 AM EDT 6:38 PM EDT
Nautical Twilight 6:25 AM EDT 7:11 PM EDT
Astronomical Twilight 5:52 AM EDT 7:44 PM EDT
Moon 7:04 AM EDT (10/23) 6:09 PM EDT (10/23)
Length of Visible Light 11h 39m
Length of Day
10h 41m
Waning Crescent, 0% of the Moon is Illuminated
Oct 23
Waning Crescent
Oct 23
New
Oct 30
First Quarter
Nov 6
Full
Nov 14
Last Quarter

Hourly Weather History & Observations

Time (EDT) Temp. Windchill Dew Point Humidity Pressure Visibility Wind Dir Wind Speed Gust Speed Precip Events Conditions
12:54 AM 46.0 °F 43.1 °F 41.0 °F 83% 30.04 in 10.0 mi WNW 5.8 mph - N/A   Mostly Cloudy
1:54 AM 46.0 °F 43.1 °F 39.9 °F 79% 30.02 in 10.0 mi WNW 5.8 mph - 0.00 in Rain Light Rain
2:54 AM 45.0 °F 42.6 °F 39.9 °F 82% 30.03 in 10.0 mi WNW 4.6 mph - 0.00 in Rain Light Rain
3:54 AM 46.9 °F - 39.9 °F 77% 30.00 in 10.0 mi NW 11.5 mph - 0.00 in Rain Light Rain
4:54 AM 44.1 °F 38.1 °F 37.9 °F 79% 30.01 in 10.0 mi NW 11.5 mph - 0.00 in   Mostly Cloudy
5:45 AM 44.1 °F 37.4 °F 37.9 °F 79% 30.00 in 10.0 mi NW 13.8 mph - N/A   Overcast
5:54 AM 44.1 °F 38.1 °F 37.0 °F 76% 30.00 in 10.0 mi NW 11.5 mph - N/A   Overcast
6:54 AM 44.1 °F 38.1 °F 37.9 °F 79% 30.01 in 10.0 mi NW 11.5 mph - 0.00 in Rain Light Rain
7:54 AM 44.1 °F 37.4 °F 37.9 °F 79% 30.00 in 10.0 mi WNW 13.8 mph - 0.00 in   Mostly Cloudy
8:54 AM 44.1 °F 38.6 °F 37.0 °F 76% 30.00 in 10.0 mi NW 10.4 mph - N/A   Mostly Cloudy
9:54 AM 46.9 °F - 37.9 °F 71% 29.98 in 10.0 mi NW 12.7 mph - N/A   Mostly Cloudy
10:01 AM 46.9 °F - 37.9 °F 71% 29.99 in 10.0 mi NW 10.4 mph 19.6 mph N/A   Overcast
10:54 AM 48.9 °F - 39.0 °F 69% 29.98 in 10.0 mi NNW 15.0 mph 21.9 mph N/A   Mostly Cloudy
11:54 AM 52.0 °F - 39.9 °F 63% 29.96 in 10.0 mi WNW 18.4 mph 24.2 mph N/A   Mostly Cloudy
12:54 PM 53.1 °F - 41.0 °F 64% 29.95 in 10.0 mi NW 13.8 mph - N/A   Overcast
1:54 PM 54.0 °F - 41.0 °F 62% 29.94 in 10.0 mi NW 15.0 mph 23.0 mph N/A   Overcast
2:54 PM 53.1 °F - 41.0 °F 64% 29.94 in 10.0 mi NW 13.8 mph 25.3 mph 0.00 in Rain Light Rain
3:54 PM 53.1 °F - 41.0 °F 64% 29.94 in 10.0 mi NW 16.1 mph 26.5 mph 0.00 in   Overcast
4:54 PM 53.1 °F - 42.1 °F 66% 29.94 in 10.0 mi NNW 11.5 mph - N/A   Overcast
5:54 PM 52.0 °F - 42.1 °F 69% 29.93 in 10.0 mi NNW 17.3 mph 21.9 mph 0.00 in   Overcast
6:54 PM 51.1 °F - 45.0 °F 80% 29.95 in 10.0 mi NNW 12.7 mph - 0.00 in Rain Light Rain
7:19 PM 50.0 °F - 45.0 °F 83% 29.95 in 10.0 mi North 11.5 mph - 0.01 in   Overcast
7:54 PM 50.0 °F - 45.0 °F 83% 29.96 in 10.0 mi North 8.1 mph - 0.01 in Rain Light Rain
8:26 PM 48.9 °F - 45.0 °F 86% 29.95 in 10.0 mi NNW 10.4 mph - 0.00 in Rain Light Rain
8:54 PM 48.9 °F - 44.1 °F 83% 29.96 in 10.0 mi NNW 10.4 mph - 0.00 in   Overcast
9:09 PM 48.9 °F - 44.1 °F 83% 29.96 in 10.0 mi NNW 10.4 mph - N/A   Overcast
9:26 PM 48.9 °F - 44.1 °F 83% 29.96 in 10.0 mi NNW 9.2 mph - N/A   Overcast
9:50 PM 48.2 °F - 44.6 °F 87% 29.96 in 10.0 mi NNW 6.9 mph - N/A   Overcast
9:54 PM 48.9 °F - 44.1 °F 83% 29.96 in 10.0 mi NNW 6.9 mph - 0.00 in Rain Light Rain
10:10 PM 48.9 °F - 44.1 °F 83% 29.97 in 10.0 mi NW 8.1 mph - 0.00 in Rain Light Rain
10:54 PM 48.9 °F - 45.0 °F 86% 29.95 in 10.0 mi NW 6.9 mph - 0.00 in   Overcast
11:10 PM 48.9 °F - 44.1 °F 83% 29.95 in 10.0 mi NW 6.9 mph - N/A   Overcast
11:54 PM 48.9 °F - 44.1 °F 83% 29.93 in 10.0 mi WNW 8.1 mph - N/A   Overcast